Time,TemperatureF,DewpointF,PressureIn,WindDirection,WindDirectionDegrees,WindSpeedMPH,WindSpeedGustMPH,Humidity,HourlyPrecipIn,Conditions,Clouds,dailyrainin,SoftwareType,DateUTC
2013-02-06 00:02:00,52.0,45.7,29.97,SSW,206,0.0,0.0,79,0.00,,,0.00,Wunderground v.1.15,2013-02-06 08:02:00,
2013-02-06 00:08:00,52.0,45.7,29.98,SSW,206,0.0,0.0,79,0.00,,,0.00,Wunderground v.1.15,2013-02-06 08:08:00,
2013-02-06 00:13:00,52.0,45.7,29.98,SSW,206,0.0,0.0,79,0.00,,,0.00,Wunderground v.1.15,2013-02-06 08:13:00,
2013-02-06 00:18:00,52.0,45.7,29.98,SSW,206,0.0,0.0,79,0.00,,,0.00,Wunderground v.1.15,2013-02-06 08:18:00,
2013-02-06 00:23:00,52.0,45.7,29.97,SSW,206,0.0,0.0,79,0.00,,,0.00,Wunderground v.1.15,2013-02-06 08:23:00,
2013-02-06 00:29:00,52.0,45.7,29.97,SSW,206,0.0,0.0,79,0.00,,,0.00,Wunderground v.1.15,2013-02-06 08:29:00,
2013-02-06 00:34:00,52.0,45.7,29.97,SSW,207,0.0,0.0,79,0.00,,,0.00,Wunderground v.1.15,2013-02-06 08:34:00,
2013-02-06 00:39:00,52.0,45.7,29.97,SSW,205,0.0,0.0,79,0.00,,,0.00,Wunderground v.1.15,2013-02-06 08:39:00,
2013-02-06 00:44:00,52.0,45.7,29.97,SSW,205,0.0,0.0,79,0.00,,,0.00,Wunderground v.1.15,2013-02-06 08:44:00,
2013-02-06 00:49:00,52.0,45.7,29.97,SSW,205,0.0,0.0,79,0.00,,,0.00,Wunderground v.1.15,2013-02-06 08:49:00,
2013-02-06 00:54:00,52.0,45.7,29.97,SW,214,0.0,0.0,79,0.00,,,0.00,Wunderground v.1.15,2013-02-06 08:54:00,
2013-02-06 00:59:00,51.9,45.6,29.97,SW,214,0.0,0.0,79,0.00,,,0.00,Wunderground v.1.15,2013-02-06 08:59:00,
2013-02-06 01:05:00,51.9,45.6,29.97,SW,214,0.0,0.0,79,0.00,,,0.00,Wunderground v.1.15,2013-02-06 09:05:00,
2013-02-06 01:10:00,51.9,45.6,29.97,SW,214,0.0,0.0,79,0.00,,,0.00,Wunderground v.1.15,2013-02-06 09:10:00,
2013-02-06 01:15:00,51.9,45.6,29.97,SW,214,0.0,0.0,79,0.00,,,0.00,Wunderground v.1.15,2013-02-06 09:15:00,
2013-02-06 01:20:00,51.9,45.6,29.96,SW,214,0.0,1.0,79,0.00,,,0.00,Wunderground v.1.15,2013-02-06 09:20:00,
2013-02-06 01:25:00,51.9,45.6,29.96,SW,214,0.0,1.0,79,0.00,,,0.00,Wunderground v.1.15,2013-02-06 09:25:00,
2013-02-06 01:31:00,51.9,45.6,29.96,SW,214,0.0,0.0,79,0.00,,,0.00,Wunderground v.1.15,2013-02-06 09:31:00,
2013-02-06 01:36:00,51.9,45.6,29.96,SW,214,0.0,0.0,79,0.00,,,0.00,Wunderground v.1.15,2013-02-06 09:36:00,
2013-02-06 01:41:00,51.9,45.6,29.96,SW,214,0.0,0.0,79,0.00,,,0.00,Wunderground v.1.15,2013-02-06 09:41:00,
2013-02-06 01:47:00,51.9,45.6,29.96,SW,214,0.0,0.0,79,0.00,,,0.00,Wunderground v.1.15,2013-02-06 09:47:00,
2013-02-06 01:53:00,51.9,45.6,29.95,SW,214,0.0,0.0,79,0.00,,,0.00,Wunderground v.1.15,2013-02-06 09:53:00,
2013-02-06 01:58:00,51.9,45.6,29.95,SW,214,0.0,0.0,79,0.00,,,0.00,Wunderground v.1.15,2013-02-06 09:58:00,
2013-02-06 02:03:00,51.9,45.6,29.95,SW,214,0.0,0.0,79,0.00,,,0.00,Wunderground v.1.15,2013-02-06 10:03:00,
2013-02-06 02:09:00,51.9,45.3,29.96,SW,214,0.0,0.0,78,0.00,,,0.00,Wunderground v.1.15,2013-02-06 10:09:00,
2013-02-06 02:14:00,51.7,45.1,29.96,SW,214,0.0,0.0,78,0.00,,,0.00,Wunderground v.1.15,2013-02-06 10:14:00,
2013-02-06 02:19:00,51.7,45.1,29.96,SW,215,0.0,3.0,78,0.00,,,0.00,Wunderground v.1.15,2013-02-06 10:19:00,
2013-02-06 02:24:00,51.7,45.1,29.95,SW,215,0.0,1.0,78,0.00,,,0.00,Wunderground v.1.15,2013-02-06 10:24:00,
2013-02-06 02:29:00,51.7,45.1,29.95,SW,215,0.0,1.0,78,0.00,,,0.00,Wunderground v.1.15,2013-02-06 10:29:00,
2013-02-06 02:34:00,51.7,45.1,29.95,SW,215,0.0,0.0,78,0.00,,,0.00,Wunderground v.1.15,2013-02-06 10:34:00,
2013-02-06 02:39:00,51.7,45.1,29.95,SW,215,0.0,0.0,78,0.00,,,0.00,Wunderground v.1.15,2013-02-06 10:39:00,
2013-02-06 02:44:00,51.7,45.1,29.95,SW,215,0.0,1.0,78,0.00,,,0.00,Wunderground v.1.15,2013-02-06 10:44:00,
2013-02-06 02:49:00,51.7,45.1,29.95,SW,215,0.0,1.0,78,0.00,,,0.00,Wunderground v.1.15,2013-02-06 10:49:00,
2013-02-06 02:54:00,51.7,45.4,29.95,SW,215,0.0,0.0,79,0.00,,,0.00,Wunderground v.1.15,2013-02-06 10:54:00,
2013-02-06 02:59:00,51.7,45.4,29.95,SW,215,0.0,0.0,79,0.00,,,0.00,Wunderground v.1.15,2013-02-06 10:59:00,
2013-02-06 03:04:00,51.7,45.4,29.95,SW,215,0.0,0.0,79,0.00,,,0.00,Wunderground v.1.15,2013-02-06 11:04:00,
2013-02-06 03:09:00,51.6,45.3,29.95,SW,215,0.0,0.0,79,0.00,,,0.00,Wunderground v.1.15,2013-02-06 11:09:00,
2013-02-06 03:14:00,51.6,45.3,29.95,SW,215,0.0,0.0,79,0.00,,,0.00,Wunderground v.1.15,2013-02-06 11:14:00,
2013-02-06 03:19:00,51.6,45.3,29.95,SW,215,0.0,0.0,79,0.00,,,0.00,Wunderground v.1.15,2013-02-06 11:19:00,
2013-02-06 03:24:00,51.6,45.3,29.95,SW,215,0.0,0.0,79,0.00,,,0.00,Wunderground v.1.15,2013-02-06 11:24:00,
2013-02-06 03:29:00,51.6,45.3,29.95,SW,215,0.0,0.0,79,0.00,,,0.00,Wunderground v.1.15,2013-02-06 11:29:00,
2013-02-06 03:34:00,51.6,45.3,29.94,SW,215,0.0,0.0,79,0.00,,,0.00,Wunderground v.1.15,2013-02-06 11:34:00,
2013-02-06 03:39:00,51.6,45.3,29.94,SW,215,0.0,0.0,79,0.00,,,0.00,Wunderground v.1.15,2013-02-06 11:39:00,
2013-02-06 03:45:00,51.4,45.1,29.94,SW,215,0.0,0.0,79,0.00,,,0.00,Wunderground v.1.15,2013-02-06 11:45:00,
2013-02-06 03:50:00,51.4,45.1,29.94,SW,215,0.0,0.0,79,0.00,,,0.00,Wunderground v.1.15,2013-02-06 11:50:00,
2013-02-06 03:55:00,51.3,45.0,29.94,SW,215,0.0,0.0,79,0.00,,,0.00,Wunderground v.1.15,2013-02-06 11:55:00,
2013-02-06 04:00:00,51.3,45.0,29.94,SW,215,0.0,0.0,79,0.00,,,0.00,Wunderground v.1.15,2013-02-06 12:00:00,
2013-02-06 04:05:00,51.3,45.0,29.94,SW,215,0.0,0.0,79,0.00,,,0.00,Wunderground v.1.15,2013-02-06 12:05:00,
2013-02-06 04:10:00,51.1,44.8,29.94,SW,215,0.0,0.0,79,0.00,,,0.00,Wunderground v.1.15,2013-02-06 12:10:00,
2013-02-06 04:15:00,51.1,44.8,29.94,SW,215,0.0,0.0,79,0.00,,,0.00,Wunderground v.1.15,2013-02-06 12:15:00,
2013-02-06 04:20:00,51.1,44.8,29.95,SW,215,0.0,0.0,79,0.00,,,0.00,Wunderground v.1.15,2013-02-06 12:20:00,
2013-02-06 04:25:00,51.1,44.8,29.95,SW,215,0.0,0.0,79,0.00,,,0.00,Wunderground v.1.15,2013-02-06 12:25:00,
2013-02-06 04:30:00,51.1,45.1,29.95,SW,215,0.0,0.0,80,0.00,,,0.00,Wunderground v.1.15,2013-02-06 12:30:00,
2013-02-06 04:35:00,51.1,45.1,29.94,SW,215,0.0,0.0,80,0.00,,,0.00,Wunderground v.1.15,2013-02-06 12:35:00,
2013-02-06 04:40:00,51.1,45.1,29.94,SW,215,0.0,0.0,80,0.00,,,0.00,Wunderground v.1.15,2013-02-06 12:40:00,
2013-02-06 04:45:00,51.0,45.0,29.94,SW,215,0.0,0.0,80,0.00,,,0.00,Wunderground v.1.15,2013-02-06 12:45:00,
2013-02-06 04:50:00,51.0,45.0,29.94,SW,215,0.0,0.0,80,0.00,,,0.00,Wunderground v.1.15,2013-02-06 12:50:00,
2013-02-06 04:55:00,51.0,45.0,29.94,SW,215,0.0,0.0,80,0.00,,,0.00,Wunderground v.1.15,2013-02-06 12:55:00,
2013-02-06 05:00:00,51.0,45.0,29.94,SW,215,0.0,0.0,80,0.00,,,0.00,Wunderground v.1.15,2013-02-06 13:00:00,
2013-02-06 05:06:00,51.0,45.0,29.94,SW,215,0.0,0.0,80,0.00,,,0.00,Wunderground v.1.15,2013-02-06 13:06:00,
2013-02-06 05:11:00,51.0,45.0,29.94,SW,215,0.0,0.0,80,0.00,,,0.00,Wunderground v.1.15,2013-02-06 13:11:00,
2013-02-06 05:16:00,51.0,45.0,29.94,SW,215,0.0,0.0,80,0.00,,,0.00,Wunderground v.1.15,2013-02-06 13:16:00,
2013-02-06 05:21:00,51.0,45.0,29.95,SW,215,0.0,0.0,80,0.00,,,0.00,Wunderground v.1.15,2013-02-06 13:21:00,
2013-02-06 05:26:00,50.8,44.9,29.95,SW,215,0.0,0.0,80,0.00,,,0.00,Wunderground v.1.15,2013-02-06 13:26:00,
2013-02-06 05:31:00,50.8,44.5,29.95,SW,215,0.0,0.0,79,0.00,,,0.00,Wunderground v.1.15,2013-02-06 13:31:00,
2013-02-06 05:36:00,50.8,44.5,29.95,SW,223,0.0,2.0,79,0.00,,,0.00,Wunderground v.1.15,2013-02-06 13:36:00,
2013-02-06 05:41:00,50.8,44.5,29.95,WSW,257,0.0,0.0,79,0.00,,,0.00,Wunderground v.1.15,2013-02-06 13:41:00,
2013-02-06 05:46:00,50.8,44.5,29.95,West,259,0.0,2.0,79,0.00,,,0.00,Wunderground v.1.15,2013-02-06 13:46:00,
2013-02-06 05:51:00,50.8,44.5,29.95,West,260,0.0,0.0,79,0.00,,,0.00,Wunderground v.1.15,2013-02-06 13:51:00,
2013-02-06 05:56:00,50.8,44.5,29.95,West,261,0.0,2.0,79,0.00,,,0.00,Wunderground v.1.15,2013-02-06 13:56:00,
2013-02-06 06:01:00,50.8,44.5,29.95,West,266,0.0,2.0,79,0.00,,,0.00,Wunderground v.1.15,2013-02-06 14:01:00,
2013-02-06 06:06:00,50.8,44.2,29.95,WSW,255,0.0,2.0,78,0.00,,,0.00,Wunderground v.1.15,2013-02-06 14:06:00,
2013-02-06 06:11:00,50.8,44.2,29.95,WSW,255,0.0,0.0,78,0.00,,,0.00,Wunderground v.1.15,2013-02-06 14:11:00,
2013-02-06 06:16:00,50.7,44.1,29.95,WSW,245,0.0,0.0,78,0.00,,,0.00,Wunderground v.1.15,2013-02-06 14:16:00,
2013-02-06 06:21:00,50.7,44.1,29.96,West,277,0.0,3.0,78,0.00,,,0.00,Wunderground v.1.15,2013-02-06 14:21:00,
2013-02-06 06:26:00,50.8,44.2,29.96,West,278,0.0,3.0,78,0.00,,,0.00,Wunderground v.1.15,2013-02-06 14:26:00,
2013-02-06 06:31:00,50.8,44.2,29.96,West,278,0.0,0.0,78,0.00,,,0.00,Wunderground v.1.15,2013-02-06 14:31:00,
2013-02-06 06:36:00,50.8,44.2,29.97,West,272,0.0,3.0,78,0.00,,,0.00,Wunderground v.1.15,2013-02-06 14:36:00,
2013-02-06 06:41:00,50.8,44.2,29.97,West,272,0.0,2.0,78,0.00,,,0.00,Wunderground v.1.15,2013-02-06 14:41:00,
2013-02-06 06:46:00,50.8,44.2,29.97,WSW,255,0.0,2.0,78,0.00,,,0.00,Wunderground v.1.15,2013-02-06 14:46:00,
2013-02-06 06:51:00,50.8,44.2,29.97,WSW,255,0.0,0.0,78,0.00,,,0.00,Wunderground v.1.15,2013-02-06 14:51:00,
2013-02-06 06:56:00,51.0,44.4,29.97,WSW,255,0.0,0.0,78,0.00,,,0.00,Wunderground v.1.15,2013-02-06 14:56:00,
2013-02-06 07:01:00,51.0,44.4,29.97,WSW,255,0.0,0.0,78,0.00,,,0.00,Wunderground v.1.15,2013-02-06 15:01:00,
2013-02-06 07:06:00,51.0,44.0,29.98,WSW,255,0.0,0.0,77,0.00,,,0.00,Wunderground v.1.15,2013-02-06 15:06:00,
2013-02-06 07:11:00,51.0,44.0,29.98,WSW,255,0.0,0.0,77,0.00,,,0.00,Wunderground v.1.15,2013-02-06 15:11:00,
2013-02-06 07:16:00,51.0,44.0,29.98,WSW,255,0.0,0.0,77,0.00,,,0.00,Wunderground v.1.15,2013-02-06 15:16:00,
2013-02-06 07:21:00,51.1,44.1,29.98,WSW,255,0.0,0.0,77,0.00,,,0.00,Wunderground v.1.15,2013-02-06 15:21:00,
2013-02-06 07:26:00,51.1,44.1,29.98,WSW,255,0.0,0.0,77,0.00,,,0.00,Wunderground v.1.15,2013-02-06 15:26:00,
2013-02-06 07:31:00,51.1,44.1,29.98,WSW,255,0.0,0.0,77,0.00,,,0.00,Wunderground v.1.15,2013-02-06 15:31:00,
2013-02-06 07:36:00,51.3,44.3,29.99,West,267,0.0,2.0,77,0.00,,,0.00,Wunderground v.1.15,2013-02-06 15:36:00,
2013-02-06 07:41:00,51.3,44.3,29.99,West,268,0.0,0.0,77,0.00,,,0.00,Wunderground v.1.15,2013-02-06 15:41:00,
2013-02-06 07:46:00,51.4,44.4,29.99,WSW,257,0.0,0.0,77,0.00,,,0.00,Wunderground v.1.15,2013-02-06 15:46:00,
2013-02-06 07:51:00,51.4,44.4,29.99,WSW,250,0.0,0.0,77,0.00,,,0.00,Wunderground v.1.15,2013-02-06 15:51:00,
2013-02-06 07:56:00,51.4,44.4,29.99,WSW,250,0.0,0.0,77,0.00,,,0.00,Wunderground v.1.15,2013-02-06 15:56:00,
2013-02-06 08:01:00,51.6,44.3,29.99,WSW,250,0.0,0.0,76,0.00,,,0.00,Wunderground v.1.15,2013-02-06 16:01:00,
2013-02-06 08:06:00,51.6,44.3,30.00,WSW,250,0.0,0.0,76,0.00,,,0.00,Wunderground v.1.15,2013-02-06 16:06:00,
2013-02-06 08:11:00,51.7,44.4,30.00,WSW,250,0.0,0.0,76,0.00,,,0.00,Wunderground v.1.15,2013-02-06 16:11:00,
2013-02-06 08:16:00,51.7,44.4,30.00,WSW,250,0.0,0.0,76,0.00,,,0.00,Wunderground v.1.15,2013-02-06 16:16:00,
2013-02-06 08:21:00,52.0,44.7,30.00,WSW,250,0.0,0.0,76,0.00,,,0.00,Wunderground v.1.15,2013-02-06 16:21:00,
2013-02-06 08:26:00,52.3,44.6,30.00,WSW,257,0.0,2.0,75,0.00,,,0.00,Wunderground v.1.15,2013-02-06 16:26:00,
2013-02-06 08:31:00,52.5,44.8,30.00,West,264,0.0,2.0,75,0.00,,,0.00,Wunderground v.1.15,2013-02-06 16:31:00,
2013-02-06 08:36:00,52.6,44.5,30.00,West,264,0.0,2.0,74,0.00,,,0.00,Wunderground v.1.15,2013-02-06 16:36:00,
2013-02-06 08:41:00,52.9,44.8,30.00,WSW,243,0.0,0.0,74,0.00,,,0.00,Wunderground v.1.15,2013-02-06 16:41:00,
2013-02-06 08:47:00,53.2,44.8,30.00,West,267,0.0,4.0,73,0.00,,,0.00,Wunderground v.1.15,2013-02-06 16:47:00,
2013-02-06 08:52:00,53.5,45.1,30.00,West,268,0.0,4.0,73,0.00,,,0.00,Wunderground v.1.15,2013-02-06 16:52:00,
2013-02-06 08:57:00,53.5,44.7,30.00,West,266,3.0,6.0,72,0.00,,,0.00,Wunderground v.1.15,2013-02-06 16:57:00,
2013-02-06 09:02:00,53.6,44.8,30.00,West,266,1.0,5.0,72,0.00,,,0.00,Wunderground v.1.15,2013-02-06 17:02:00,
2013-02-06 09:07:00,53.8,44.6,30.01,South,182,0.0,5.0,71,0.00,,,0.00,Wunderground v.1.15,2013-02-06 17:07:00,
2013-02-06 09:12:00,54.1,44.5,30.01,West,269,0.0,4.0,70,0.00,,,0.00,Wunderground v.1.15,2013-02-06 17:12:00,
2013-02-06 09:17:00,54.2,44.6,30.01,WSW,258,0.0,4.0,70,0.00,,,0.00,Wunderground v.1.15,2013-02-06 17:17:00,
2013-02-06 09:22:00,54.8,44.8,30.00,West,271,0.0,3.0,69,0.00,,,0.00,Wunderground v.1.15,2013-02-06 17:22:00,
2013-02-06 09:27:00,55.4,45.0,30.00,West,262,0.0,3.0,68,0.00,,,0.00,Wunderground v.1.15,2013-02-06 17:27:00,
2013-02-06 09:32:00,55.9,45.1,30.00,West,265,1.0,4.0,67,0.00,,,0.00,Wunderground v.1.15,2013-02-06 17:32:00,
2013-02-06 09:37:00,55.9,44.7,30.02,West,273,4.0,5.0,66,0.00,,,0.00,Wunderground v.1.15,2013-02-06 17:37:00,
2013-02-06 09:42:00,55.6,44.4,30.02,WSW,255,2.0,6.0,66,0.00,,,0.00,Wunderground v.1.15,2013-02-06 17:42:00,
2013-02-06 09:47:00,55.6,44.4,30.02,WSW,245,0.0,6.0,66,0.00,,,0.00,Wunderground v.1.15,2013-02-06 17:47:00,
2013-02-06 09:52:00,55.7,44.1,30.02,WSW,258,0.0,5.0,65,0.00,,,0.00,Wunderground v.1.15,2013-02-06 17:52:00,
2013-02-06 09:57:00,55.6,44.0,30.02,West,267,3.0,6.0,65,0.00,,,0.00,Wunderground v.1.15,2013-02-06 17:57:00,
2013-02-06 10:02:00,55.7,44.1,30.02,West,273,1.0,4.0,65,0.00,,,0.00,Wunderground v.1.15,2013-02-06 18:02:00,
2013-02-06 10:07:00,56.0,44.0,30.02,WNW,283,0.0,4.0,64,0.00,,,0.00,Wunderground v.1.15,2013-02-06 18:07:00,
2013-02-06 10:12:00,56.5,44.0,30.02,SW,214,0.0,3.0,63,0.00,,,0.00,Wunderground v.1.15,2013-02-06 18:12:00,
2013-02-06 10:17:00,57.3,44.4,30.02,SW,218,1.0,3.0,62,0.00,,,0.00,Wunderground v.1.15,2013-02-06 18:17:00,
2013-02-06 10:22:00,57.6,43.8,30.01,SSW,208,0.0,1.0,60,0.00,,,0.00,Wunderground v.1.15,2013-02-06 18:22:00,
2013-02-06 10:27:00,58.3,44.0,30.01,South,191,1.0,5.0,59,0.00,,,0.00,Wunderground v.1.15,2013-02-06 18:27:00,
2013-02-06 10:32:00,58.4,43.7,30.01,SSW,199,0.0,4.0,58,0.00,,,0.00,Wunderground v.1.15,2013-02-06 18:32:00,
2013-02-06 10:37:00,58.7,43.5,30.01,WSW,253,0.0,4.0,57,0.00,,,0.00,Wunderground v.1.15,2013-02-06 18:37:00,
2013-02-06 10:42:00,58.9,43.2,30.01,South,169,0.0,3.0,56,0.00,,,0.00,Wunderground v.1.15,2013-02-06 18:42:00,
2013-02-06 10:47:00,58.9,43.2,30.01,South,170,0.0,4.0,56,0.00,,,0.00,Wunderground v.1.15,2013-02-06 18:47:00,
2013-02-06 10:52:00,59.2,43.0,30.00,SW,219,0.0,5.0,55,0.00,,,0.00,Wunderground v.1.15,2013-02-06 18:52:00,
2013-02-06 10:57:00,59.3,43.1,30.00,SSW,205,0.0,5.0,55,0.00,,,0.00,Wunderground v.1.15,2013-02-06 18:57:00,
2013-02-06 11:02:00,59.2,42.6,30.00,South,186,7.0,7.0,54,0.00,,,0.00,Wunderground v.1.15,2013-02-06 19:02:00,
2013-02-06 11:07:00,59.3,42.6,30.00,SW,219,0.0,7.0,54,0.00,,,0.00,Wunderground v.1.15,2013-02-06 19:07:00,
2013-02-06 11:12:00,59.2,42.6,30.00,SSW,207,0.0,5.0,54,0.00,,,0.00,Wunderground v.1.15,2013-02-06 19:12:00,
2013-02-06 11:17:00,59.0,42.4,30.00,South,181,3.0,6.0,54,0.00,,,0.00,Wunderground v.1.15,2013-02-06 19:17:00,
2013-02-06 11:22:00,59.3,42.6,30.00,WSW,240,0.0,3.0,54,0.00,,,0.00,Wunderground v.1.15,2013-02-06 19:22:00,
2013-02-06 11:27:00,59.8,42.6,30.00,South,185,1.0,7.0,53,0.00,,,0.00,Wunderground v.1.15,2013-02-06 19:27:00,
2013-02-06 11:32:00,59.9,42.2,30.00,SSE,154,0.0,3.0,52,0.00,,,0.00,Wunderground v.1.15,2013-02-06 19:32:00,
2013-02-06 11:37:00,60.5,42.3,30.00,SW,214,0.0,5.0,51,0.00,,,0.00,Wunderground v.1.15,2013-02-06 19:37:00,
2013-02-06 11:42:00,60.9,42.6,30.00,SW,236,1.0,2.0,51,0.00,,,0.00,Wunderground v.1.15,2013-02-06 19:42:00,
2013-02-06 11:47:00,60.9,42.1,30.00,SSW,197,0.0,6.0,50,0.00,,,0.00,Wunderground v.1.15,2013-02-06 19:47:00,
2013-02-06 11:52:00,61.0,41.7,30.00,West,280,1.0,5.0,49,0.00,,,0.00,Wunderground v.1.15,2013-02-06 19:52:00,
2013-02-06 11:57:00,61.2,41.9,30.00,West,281,4.0,7.0,49,0.00,,,0.00,Wunderground v.1.15,2013-02-06 19:57:00,
2013-02-06 12:02:00,61.2,42.4,30.00,West,276,1.0,3.0,50,0.00,,,0.00,Wunderground v.1.15,2013-02-06 20:02:00,
2013-02-06 12:07:00,61.0,41.7,29.99,West,267,3.0,5.0,49,0.00,,,0.00,Wunderground v.1.15,2013-02-06 20:07:00,
2013-02-06 12:12:00,60.7,41.9,29.99,West,274,4.0,4.0,50,0.00,,,0.00,Wunderground v.1.15,2013-02-06 20:12:00,
2013-02-06 12:17:00,61.2,41.9,29.99,SW,235,0.0,5.0,49,0.00,,,0.00,Wunderground v.1.15,2013-02-06 20:17:00,
2013-02-06 12:22:00,61.5,41.6,29.98,WSW,258,0.0,7.0,48,0.00,,,0.00,Wunderground v.1.15,2013-02-06 20:22:00,
2013-02-06 12:28:00,61.8,41.3,29.98,SE,143,1.0,7.0,47,0.00,,,0.00,Wunderground v.1.15,2013-02-06 20:28:00,
2013-02-06 12:32:00,62.3,41.8,29.98,SSW,203,1.0,5.0,47,0.00,,,0.00,Wunderground v.1.15,2013-02-06 20:32:00,
2013-02-06 12:37:00,62.7,41.0,29.97,West,265,5.0,7.0,45,0.00,,,0.00,Wunderground v.1.15,2013-02-06 20:37:00,
2013-02-06 12:43:00,62.7,41.0,29.97,West,262,1.0,4.0,45,0.00,,,0.00,Wunderground v.1.15,2013-02-06 20:43:00,
2013-02-06 12:48:00,62.7,41.0,29.97,West,264,1.0,6.0,45,0.00,,,0.00,Wunderground v.1.15,2013-02-06 20:48:00,
2013-02-06 12:53:00,62.6,40.9,29.97,SSW,198,0.0,5.0,45,0.00,,,0.00,Wunderground v.1.15,2013-02-06 20:53:00,
2013-02-06 12:58:00,62.9,41.2,29.97,WNW,282,4.0,6.0,45,0.00,,,0.00,Wunderground v.1.15,2013-02-06 20:58:00,
2013-02-06 13:03:00,63.4,41.1,29.97,SSW,211,1.0,5.0,44,0.00,,,0.00,Wunderground v.1.15,2013-02-06 21:03:00,
2013-02-06 13:08:00,63.5,41.2,29.96,WNW,289,1.0,6.0,44,0.00,,,0.00,Wunderground v.1.15,2013-02-06 21:08:00,
2013-02-06 13:13:00,63.4,41.1,29.96,West,273,3.0,8.0,44,0.00,,,0.00,Wunderground v.1.15,2013-02-06 21:13:00,
2013-02-06 13:18:00,63.2,41.5,29.96,West,281,6.0,8.0,45,0.00,,,0.00,Wunderground v.1.15,2013-02-06 21:18:00,
2013-02-06 13:23:00,63.2,40.9,29.95,West,273,3.0,5.0,44,0.00,,,0.00,Wunderground v.1.15,2013-02-06 21:23:00,
2013-02-06 13:28:00,63.2,40.9,29.95,West,276,4.0,6.0,44,0.00,,,0.00,Wunderground v.1.15,2013-02-06 21:28:00,
2013-02-06 13:33:00,63.1,41.4,29.95,West,261,1.0,5.0,45,0.00,,,0.00,Wunderground v.1.15,2013-02-06 21:33:00,
2013-02-06 13:38:00,63.2,40.9,29.95,West,271,3.0,11.0,44,0.00,,,0.00,Wunderground v.1.15,2013-02-06 21:38:00,
2013-02-06 13:43:00,63.2,40.9,29.95,NW,311,5.0,9.0,44,0.00,,,0.00,Wunderground v.1.15,2013-02-06 21:43:00,
2013-02-06 13:48:00,62.9,41.2,29.95,West,259,3.0,9.0,45,0.00,,,0.00,Wunderground v.1.15,2013-02-06 21:48:00,
2013-02-06 13:53:00,63.1,40.8,29.95,West,269,5.0,6.0,44,0.00,,,0.00,Wunderground v.1.15,2013-02-06 21:53:00,
2013-02-06 13:58:00,63.1,40.8,29.95,West,273,2.0,9.0,44,0.00,,,0.00,Wunderground v.1.15,2013-02-06 21:58:00,
2013-02-06 14:03:00,63.5,40.6,29.95,NW,308,3.0,7.0,43,0.00,,,0.00,Wunderground v.1.15,2013-02-06 22:03:00,
2013-02-06 14:08:00,63.4,41.1,29.95,West,260,4.0,10.0,44,0.00,,,0.00,Wunderground v.1.15,2013-02-06 22:08:00,
2013-02-06 14:13:00,63.5,40.6,29.95,WNW,288,5.0,9.0,43,0.00,,,0.00,Wunderground v.1.15,2013-02-06 22:13:00,
2013-02-06 14:18:00,63.7,41.4,29.95,West,277,0.0,9.0,44,0.00,,,0.00,Wunderground v.1.15,2013-02-06 22:18:00,
2013-02-06 14:23:00,63.7,41.4,29.95,WNW,288,4.0,10.0,44,0.00,,,0.00,Wunderground v.1.15,2013-02-06 22:23:00,
2013-02-06 14:28:00,63.5,41.2,29.95,West,272,5.0,10.0,44,0.00,,,0.00,Wunderground v.1.15,2013-02-06 22:28:00,
2013-02-06 14:33:00,63.5,41.2,29.95,West,270,4.0,6.0,44,0.00,,,0.00,Wunderground v.1.15,2013-02-06 22:33:00,
2013-02-06 14:38:00,63.5,41.2,29.95,West,278,5.0,7.0,44,0.00,,,0.00,Wunderground v.1.15,2013-02-06 22:38:00,
2013-02-06 14:43:00,63.2,40.9,29.95,West,272,4.0,7.0,44,0.00,,,0.00,Wunderground v.1.15,2013-02-06 22:43:00,
2013-02-06 14:48:00,63.4,41.1,29.95,WNW,292,3.0,7.0,44,0.00,,,0.00,Wunderground v.1.15,2013-02-06 22:48:00,
2013-02-06 14:53:00,63.4,41.1,29.95,West,262,2.0,9.0,44,0.00,,,0.00,Wunderground v.1.15,2013-02-06 22:53:00,
2013-02-06 14:58:00,63.5,41.2,29.95,WNW,293,4.0,9.0,44,0.00,,,0.00,Wunderground v.1.15,2013-02-06 22:58:00,
2013-02-06 15:03:00,63.4,41.1,29.95,WNW,290,3.0,7.0,44,0.00,,,0.00,Wunderground v.1.15,2013-02-06 23:03:00,
2013-02-06 15:09:00,63.4,40.5,29.95,West,270,1.0,7.0,43,0.00,,,0.00,Wunderground v.1.15,2013-02-06 23:09:00,
2013-02-06 15:14:00,63.7,40.8,29.95,WNW,285,4.0,6.0,43,0.00,,,0.00,Wunderground v.1.15,2013-02-06 23:14:00,
2013-02-06 15:19:00,63.9,41.0,29.95,West,263,4.0,6.0,43,0.00,,,0.00,Wunderground v.1.15,2013-02-06 23:19:00,
2013-02-06 15:24:00,63.9,41.0,29.96,West,262,0.0,7.0,43,0.00,,,0.00,Wunderground v.1.15,2013-02-06 23:24:00,
2013-02-06 15:29:00,63.5,40.6,29.96,West,275,5.0,7.0,43,0.00,,,0.00,Wunderground v.1.15,2013-02-06 23:29:00,
2013-02-06 15:34:00,63.4,40.5,29.96,WSW,251,4.0,9.0,43,0.00,,,0.00,Wunderground v.1.15,2013-02-06 23:34:00,
2013-02-06 15:39:00,63.2,40.3,29.96,West,277,4.0,9.0,43,0.00,,,0.00,Wunderground v.1.15,2013-02-06 23:39:00,
2013-02-06 15:44:00,63.1,40.2,29.96,WNW,285,4.0,5.0,43,0.00,,,0.00,Wunderground v.1.15,2013-02-06 23:44:00,
2013-02-06 15:49:00,63.2,40.9,29.96,WSW,258,0.0,5.0,44,0.00,,,0.00,Wunderground v.1.15,2013-02-06 23:49:00,
2013-02-06 15:54:00,63.1,40.2,29.97,West,262,3.0,4.0,43,0.00,,,0.00,Wunderground v.1.15,2013-02-06 23:54:00,
2013-02-06 15:59:00,62.9,40.0,29.97,West,259,2.0,8.0,43,0.00,,,0.00,Wunderground v.1.15,2013-02-06 23:59:00,
2013-02-06 16:04:00,62.7,39.9,29.97,West,262,2.0,6.0,43,0.00,,,0.00,Wunderground v.1.15,2013-02-07 00:04:00,
2013-02-06 16:09:00,62.7,39.9,29.97,West,265,0.0,6.0,43,0.00,,,0.00,Wunderground v.1.15,2013-02-07 00:09:00,